Wetbulb
53.11 52.53 51.56 51.72 51.46 51.51 51.86 51.84 52.19 52.98 53.05 53.18 53.56 53.99 54.37 54.90 55.91 54.24 52.06 55.79 53.67 48.70 49.02 50.44 51.73 48.42 48.56 49.35 46.35 49.61 48.85 51.05 50.27 46.67 45.74 44.57 44.13 45.50 44.74 46.68 45.61 44.57 44.96 45.10 44.35 42.15 40.54 55.78 56.17 49.98 52.90 55.50 57.17 57.29
52.92 51.31 51.21 51.17 50.96 51.38 51.48 51.44 51.73 52.53 52.84 53.22 53.27 53.37 53.72 54.25 55.02 55.26 50.52 54.73 55.77 51.01 49.02 53.09 52.89 53.23 51.90 51.41 49.53 49.94 48.75 48.89 50.64 47.23 47.88 47.10 44.68 47.88 46.56 43.19 51.54 45.99 47.58 46.60 47.87 47.34 53.14 56.35 55.45 56.30 58.09 56.25 57.20 59.24
51.66 51.21 50.89 50.68 50.89 51.17 51.25 51.32 51.38 51.97 52.59 53.11 53.40 53.01 53.40 54.35 54.55 54.06 51.63 53.14 52.38 49.94 49.09 49.71 49.44 53.97 55.84 55.62 56.21 47.06 49.84 52.11 50.59 53.67 48.98 48.75 45.95 48.87 44.13 45.79 49.06 51.67 51.92 49.74 48.68 52.33 52.36 54.55 58.82 58.40 57.70 57.98 58.00 65.62
51.14 50.71 50.58 50.45 50.83 50.96 51.02 51.25 51.27 51.48 52.20 53.03 53.34 53.09 53.28 54.12 54.44 53.82 51.36 53.49 53.30 50.48 44.12 45.73 54.26 51.44 54.73 54.06 53.80 55.27 52.78 53.69 52.55 51.85 48.11 46.75 45.94 50.20 46.89 48.92 47.99 51.52 50.18 49.33 48.64 52.76 52.53 57.93 54.84 56.47 56.98 60.23 60.84 61.73
50.77 50.45 50.22 50.65 50.67 50.58 50.79 50.89 50.98 51.40 52.09 53.13 52.95 52.61 53.00 53.73 53.71 52.76 52.28 53.78 56.07 48.47 43.39 44.82 50.04 53.29 54.57 55.14 53.72 54.59 53.91 52.78 50.84 48.64 47.03 45.54 49.03 48.44 49.13 48.58 46.58 52.49 50.34 47.39 45.51 53.19 51.86 52.03 55.49 57.41 56.61 58.11 59.78 59.51
50.28 50.00 50.12 50.09 50.55 50.35 50.77 50.77 50.67 51.03 51.78 52.74 52.76 52.63 52.95 53.21 53.19 50.64 47.59 52.68 53.90 53.38 46.20 40.54 50.07 49.53 53.53 54.65 54.25 53.59 53.44 52.88 51.29 48.77 47.31 48.94 51.68 49.23 44.88 43.45 49.91 53.11 54.90 54.57 51.72 55.87 54.55 55.64 56.79 58.81 58.58 59.26 60.50 64.53
49.94 50.58 49.90 50.10 50.16 50.52 50.46 50.59 50.54 50.56 51.18 52.06 52.95 52.89 52.80 52.62 50.39 47.02 46.84 51.36 53.60 54.49 46.73 42.15 43.73 52.97 54.47 56.33 55.17 54.43 55.13 53.26 52.14 50.23 47.84 48.22 49.00 50.57 46.20 42.84 48.73 50.90 52.93 55.74 55.41 56.54 53.65 55.96 54.16 57.48 60.61 60.83 60.55 64.68
50.01 49.52 50.03 50.12 50.34 50.14 50.31 50.48 50.34 50.55 51.01 51.88 52.45 52.69 52.40 52.03 50.63 47.79 52.73 52.87 52.83 50.34 49.99 42.11 42.89 48.03 53.91 50.51 50.76 54.54 50.97 51.79 50.83 49.96 49.76 47.82 48.26 49.90 43.61 47.96 50.55 52.21 53.02 53.15 55.75 56.15 56.07 57.26 58.48 58.94 61.35 61.21 59.75 59.38
49.73 49.71 50.30 50.06 49.85 50.00 50.04 50.13 50.04 50.78 51.29 51.68 51.85 51.97 50.98 49.21 48.06 53.12 55.43 53.62 52.94 51.36 44.53 43.96 41.02 42.43 52.47 51.65 52.65 51.51 51.78 46.93 51.27 47.14 47.37 48.50 45.48 42.64 46.67 48.20 50.68 52.91 52.73 53.40 55.34 55.68 57.25 57.79 57.88 59.90 60.06 60.35 59.51 56.94
49.82 49.85 49.64 49.64 49.65 49.71 49.67 49.66 50.34 51.14 50.86 51.05 50.46 49.92 47.13 51.99 56.61 56.31 53.34 49.63 48.47 48.60 47.82 41.58 45.43 42.18 47.76 47.98 49.96 49.28 51.25 46.51 43.84 47.22 50.77 45.68 44.43 48.92 50.46 52.26 53.47 53.98 54.58 56.06 54.51 54.66 56.52 57.67 58.39 59.35 59.77 59.86 60.00 59.71
49.76 49.66 49.51 49.19 49.20 49.46 49.32 49.75 50.60 50.73 51.53 52.58 49.85 48.80 50.66 56.69 53.26 50.47 46.09 44.11 44.95 42.73 44.87 45.19 46.13 46.07 52.30 46.32 47.18 50.56 47.64 48.03 41.90 46.28 46.25 44.49 43.96 48.99 53.16 52.19 52.98 54.16 54.50 55.53 56.48 59.68 58.40 58.51 57.50 58.74 57.96 59.01 60.91 62.06
49.83 49.52 48.79 49.10 49.35 49.18 49.39 49.93 50.73 49.70 49.87 46.89 46.36 48.87 50.49 49.62 48.76 44.86 43.30 46.86 43.96 43.63 48.02 46.64 48.43 50.16 50.95 52.41 48.84 49.92 46.16 46.87 40.11 49.63 45.10 42.89 49.28 53.34 54.65 55.45 56.15 57.18 55.73 56.09 58.38 58.08 59.16 59.84 58.72 58.13 56.74 58.96 61.94 62.22
49.80 49.11 48.75 48.82 49.15 49.29 49.39 49.91 50.22 50.64 49.85 51.03 47.11 45.72 46.28 47.15 38.58 40.03 38.59 42.94 44.35 48.06 49.68 49.41 46.07 49.94 51.98 52.44 49.79 47.93 43.92 42.72 48.94 44.26 44.10 47.26 50.78 52.76 54.97 54.81 53.53 56.27 57.15 57.65 58.40 60.67 60.94 61.00 62.65 60.47 60.13 60.90 61.30 61.35
49.60 48.67 48.66 48.86 49.09 49.35 49.57 49.95 50.94 50.09 48.41 45.55 44.94 35.36 41.25 40.72 43.19 44.71 44.59 45.28 49.74 49.33 49.13 48.89 46.99 47.32 50.21 48.03 47.57 42.90 46.46 46.10 41.12 40.95 42.78 48.78 51.57 53.55 54.95 56.55 56.92 58.15 57.42 57.17 58.33 59.49 60.04 61.28 61.01 61.41 59.64 60.04 61.40 60.04
48.89 48.72 48.97 48.86 49.05 49.99 50.50 51.21 51.87 50.44 47.70 44.64 46.22 37.23 41.79 45.96 47.87 48.38 50.44 50.07 51.65 52.45 51.37 50.16 49.32 47.85 46.96 45.93 47.03 45.71 43.62 42.13 39.69 41.15 47.84 51.35 53.59 54.73 54.91 57.38 58.08 58.19 57.28 57.36 58.14 59.33 59.86 60.41 57.87 58.64 59.15 59.91 61.57 60.67
48.49 48.43 48.03 49.84 50.29 50.99 51.36 50.99 50.37 50.06 47.68 45.72 45.41 43.34 46.44 45.51 45.92 47.16 47.28 48.17 51.55 51.39 51.38 51.35 46.97 44.73 45.05 46.08 44.78 43.32 43.42 42.51 46.25 49.16 51.86 52.67 53.88 54.77 55.36 58.14 59.10 59.44 58.37 58.16 58.62 60.54 60.33 60.75 59.63 60.23 60.52 60.79 61.09 60.16
47.58 47.16 50.50 50.02 50.57 50.95 51.22 49.96 50.88 46.47 45.62 45.18 44.19 48.11 47.24 46.69 45.99 46.96 48.31 49.48 50.34 50.01 47.06 47.76 42.70 42.36 47.89 44.83 44.96 48.28 45.78 48.65 51.16 52.17 54.44 55.86 55.23 55.30 57.75 59.30 58.09 58.20 57.25 58.76 58.77 60.20 61.48 61.99 60.39 60.28 58.09 58.92 59.28 59.68
47.08 50.65 49.76 49.87 49.59 51.15 51.97 49.04 47.44 46.03 43.06 45.56 43.75 46.72 48.24 49.75 47.42 48.53 49.72 51.83 50.35 48.24 49.74 47.01 49.91 44.67 41.53 40.25 42.22 46.11 47.20 51.25 52.94 51.92 53.05 54.77 56.24 56.81 58.31 59.24 61.02 60.98 59.07 58.41 59.39 58.05 62.09 61.42 58.11 58.41 59.05 59.44 59.08 58.88
48.34 49.35 49.39 49.43 48.71 46.66 46.81 47.51 48.14 42.22 44.64 46.96 48.40 49.49 49.19 48.92 49.80 51.73 51.62 52.22 52.56 53.70 51.04 49.17 46.51 43.15 43.17 45.81 45.63 47.70 49.94 51.58 50.18 53.30 55.52 57.25 58.07 57.75 58.93 60.35 59.90 61.48 59.31 58.13 58.65 59.96 59.08 58.60 58.51 59.90 60.79 59.66 58.85 59.64
49.25 49.47 49.47 49.51 48.84 47.66 44.93 46.30 51.98 45.63 43.45 46.88 48.56 47.75 48.85 49.10 49.90 51.01 50.98 50.78 50.88 49.26 47.26 46.11 46.68 49.59 48.63 49.12 50.99 51.22 52.75 54.49 53.45 53.03 53.94 55.66 58.03 56.42 56.82 59.56 59.09 59.21 60.74 62.51 58.47 56.28 58.11 57.32 58.17 59.35 60.27 58.37 59.30 58.65
49.16 49.41 50.26 48.64 48.93 46.90 45.96 45.52 45.91 47.14 47.29 45.97 48.73 48.37 48.18 49.29 48.56 48.59 48.65 51.61 49.21 47.71 46.60 49.12 49.32 50.86 53.09 52.85 53.99 53.83 54.83 55.76 54.69 54.88 55.84 55.20 56.96 56.78 56.42 60.37 60.92 59.49 58.94 59.53 58.98 55.82 56.85 56.94 60.47 61.24 60.82 59.26 59.11 58.30
50.90 50.29 49.66 47.82 45.81 47.31 45.34 48.21 45.71 48.48 45.93 46.08 46.52 47.90 46.46 45.56 46.73 48.12 49.98 48.48 48.19 49.68 50.96 51.33 52.25 52.69 55.00 55.82 56.06 58.21 60.02 60.36 59.64 58.58 54.56 54.65 55.37 58.22 59.75 59.66 59.88 59.88 57.99 58.16 59.31 59.13 59.93 61.04 61.65 61.28 60.23 59.24 58.75 59.27
49.92 49.08 48.56 48.20 44.09 42.35 41.07 49.71 44.45 46.16 42.93 44.90 47.39 45.45 46.62 49.52 51.13 54.48 49.82 50.92 51.81 54.36 54.08 53.99 55.00 58.23 56.85 57.16 59.26 59.94 60.87 59.98 57.76 57.47 56.06 57.32 57.39 59.82 58.12 57.74 59.69 59.46 59.14 59.18 60.74 60.18 59.32 55.94 58.97 60.33 59.46 58.41 58.06 56.78
48.22 46.00 43.94 43.15 43.31 38.87 45.77 43.82 47.03 45.59 46.26 43.98 44.33 43.35 45.64 48.15 52.41 50.45 46.57 49.95 53.88 57.58 57.70 57.59 55.72 55.74 57.26 59.92 57.07 57.17 58.09 59.08 58.11 58.49 58.85 56.36 56.48 58.29 59.32 59.70 60.71 60.36 60.80 62.74 61.48 60.29 59.61 58.00 55.50 57.80 56.54 55.36 54.59 53.60
39.50 37.67 39.99 33.91 43.36 41.09 40.30 41.46 42.28 42.51 41.15 43.67 43.63 43.91 47.55 51.57 46.65 45.86 47.64 52.27 53.82 54.42 56.31 57.42 57.48 58.12 57.32 57.18 55.96 56.35 59.01 58.67 57.08 56.69 58.77 60.70 59.29 58.65 58.86 58.61 60.43 60.91 61.10 58.96 57.98 58.47 58.01 56.88 55.16 54.22 53.39 52.44 52.02 51.82
34.66 40.03 36.17 41.13 41.67 40.86 41.53 40.13 42.47 43.18 44.26 43.47 44.88 48.92 49.83 46.49 43.97 44.19 48.04 50.82 52.51 53.68 53.83 54.84 55.84 56.49 57.04 57.70 58.17 56.79 56.95 59.76 60.12 55.33 56.62 60.00 60.25 59.22 58.38 58.50 58.16 58.54 59.68 58.57 58.51 58.17 55.02 54.41 53.67 53.07 51.82 50.61 46.83 52.26
34.47 38.30 42.89 46.58 45.11 44.89 43.39 44.99 46.82 45.67 43.14 42.86 45.34 44.57 43.92 41.22 42.67 48.24 51.95 52.08 50.12 52.14 53.76 55.22 55.88 56.98 57.81 59.61 59.67 61.40 58.87 59.75 60.16 59.77 60.40 61.16 62.21 62.26 60.84 59.67 58.63 59.74 61.41 60.41 58.53 56.31 54.61 54.22 54.58 54.47 54.12 54.46 54.88 54.86
40.94 42.80 39.62 43.40 43.22 44.82 42.04 42.80 42.54 42.85 45.02 47.58 45.58 41.62 41.77 42.87 45.06 50.35 51.06 52.79 52.61 53.19 54.63 56.26 57.62 59.55 59.43 59.94 61.38 61.51 60.64 60.81 60.90 60.85 60.40 60.96 61.35 60.82 60.38 59.28 56.35 48.81 59.01 59.23 57.50 56.54 55.73 55.08 54.52 54.51 54.41 53.78 53.75 54.72
40.97 43.96 43.88 41.60 43.68 44.77 44.81 43.53 43.77 48.88 51.27 48.79 44.70 43.72 45.03 50.63 51.00 49.01 50.15 51.57 53.03 54.20 54.83 57.09 58.38 61.01 61.13 61.11 62.25 61.11 58.73 58.96 57.77 56.27 55.45 55.40 55.75 57.23 59.87 60.09 59.85 59.16 58.14 56.18 46.99 52.80 55.99 55.84 55.83 55.63 55.28 54.49 54.75 55.08
41.70 45.85 42.50 43.37 42.51 42.27 46.26 50.44 49.08 51.27 52.00 51.46 51.11 50.00 50.48 49.51 50.88 52.77 52.92 54.35 53.76 53.65 56.65 58.73 59.63 58.95 58.32 58.84 58.43 57.80 57.99 57.39 57.88 57.91 56.05 55.78 56.40 57.94 58.07 57.33 57.67 58.90 58.20 57.27 56.71 56.12 48.40 54.87 53.45 56.78 56.80 56.72 55.14 54.70
45.20 45.43 43.73 43.82 42.59 45.20 49.37 51.92 51.45 50.92 50.48 49.90 51.97 48.62 47.10 48.84 51.06 53.30 54.16 56.59 58.07 58.49 58.78 58.95 59.48 60.20 57.99 56.96 56.45 56.34 56.12 59.46 59.51 59.73 58.82 58.31 58.72 57.88 57.71 58.48 59.04 59.07 58.50 57.69 56.94 56.74 56.50 56.62 57.12 57.55 57.09 56.35 56.69 53.94
45.09 44.03 43.09 41.74 43.80 49.24 50.62 48.63 48.31 47.38 47.83 46.72 46.67 48.49 49.95 49.27 49.07 53.47 58.83 58.31 57.81 58.96 55.68 57.09 57.46 57.10 57.57 57.81 57.79 56.76 51.16 58.47 58.44 58.58 58.34 57.72 57.93 58.90 58.49 58.54 58.69 58.93 59.04 58.68 58.63 58.26 57.89 56.19 56.44 56.79 55.70 56.42 56.56 55.41
45.87 45.91 46.66 45.92 45.28 44.90 47.21 46.25 45.54 44.92 46.98 49.31 50.93 52.13 52.08 51.17 50.88 56.02 60.94 60.19 60.36 58.75 57.39 57.78 59.68 59.30 60.36 60.31 56.72 54.52 52.52 54.36 46.69 41.59 41.64 42.79 44.83 50.98 57.99 58.94 58.13 58.44 58.00 57.07 56.28 56.22 56.63 56.17 56.00 56.41 55.84 55.63 55.74 54.73
MSLP
1022.74 1022.75 1022.76 1022.71 1022.62 1022.45 1022.25 1021.98 1021.67 1021.29 1020.86 1020.42 1020.06 1019.71 1019.37 1019.06 1018.70 1018.44 1017.13 1016.14 1016.25 1015.10 1013.18 1012.49 1012.01 1011.67 1010.88 1010.17 1009.39 1008.30 1007.36 1006.17 1005.53 1005.45 1005.41 1005.07 1004.63 1003.98 1003.50 1003.24 1003.16 1003.63 1004.14 1003.75 1003.37 1002.54 1001.48 999.59 999.69 999.82 999.96 1000.18 999.82 999.90
1022.55 1022.56 1022.55 1022.53 1022.43 1022.27 1022.07 1021.80 1021.56 1021.21 1020.76 1020.35 1019.96 1019.61 1019.31 1019.01 1018.70 1018.45 1017.22 1016.19 1015.94 1015.61 1013.61 1012.18 1011.37 1011.11 1010.78 1010.16 1010.18 1009.47 1008.65 1007.87 1007.16 1006.94 1007.02 1006.85 1006.32 1005.74 1004.70 1004.23 1003.65 1005.02 1006.15 1005.43 1004.74 1003.12 1002.56 1001.88 999.34 999.15 998.84 999.57 999.60 999.83
1022.30 1022.35 1022.43 1022.42 1022.33 1022.19 1021.98 1021.70 1021.37 1021.03 1020.68 1020.32 1019.88 1019.54 1019.25 1018.93 1018.68 1018.53 1017.64 1016.75 1016.16 1015.09 1013.11 1011.27 1010.10 1009.19 1008.86 1008.68 1009.03 1009.23 1008.52 1007.90 1007.44 1007.31 1007.58 1007.46 1007.32 1006.55 1005.87 1005.42 1005.46 1005.81 1006.37 1006.22 1005.51 1003.48 1003.32 1003.07 1001.34 1001.09 1000.05 998.97 998.95 999.25
1022.07 1022.21 1022.25 1022.19 1022.09 1021.99 1021.77 1021.51 1021.21 1020.81 1020.50 1020.15 1019.71 1019.29 1019.02 1018.72 1018.46 1018.18 1017.46 1016.68 1016.55 1015.98 1014.28 1010.97 1009.62 1009.13 1008.35 1008.31 1008.07 1007.70 1007.61 1007.29 1007.22 1007.28 1007.33 1007.55 1007.41 1006.91 1006.30 1006.06 1006.19 1006.33 1006.51 1006.62 1006.34 1005.62 1004.00 1002.69 1003.54 1003.96 1002.46 1000.58 998.87 999.59
1021.90 1022.00 1022.01 1021.95 1021.84 1021.72 1021.60 1021.26 1021.00 1020.68 1020.33 1020.03 1019.59 1019.21 1018.82 1018.48 1018.14 1017.74 1016.84 1016.19 1016.12 1016.62 1014.97 1012.53 1010.70 1007.69 1007.12 1006.70 1006.83 1006.80 1006.62 1006.65 1006.73 1006.81 1006.75 1006.69 1006.59 1006.62 1006.06 1005.81 1005.71 1005.76 1005.87 1006.27 1005.64 1004.93 1004.93 1004.14 1003.42 1004.57 1002.42 1001.91 1002.37 1000.53
1021.72 1021.82 1021.79 1021.75 1021.63 1021.49 1021.32 1021.05 1020.74 1020.35 1020.02 1019.76 1019.40 1019.09 1018.63 1018.35 1018.01 1017.40 1016.20 1016.45 1016.42 1016.32 1015.77 1013.87 1010.05 1007.76 1006.58 1006.00 1005.94 1006.14 1005.93 1005.96 1006.16 1006.16 1006.12 1005.98 1005.85 1006.03 1005.99 1005.35 1004.79 1004.41 1004.70 1004.86 1004.66 1004.65 1004.17 1004.15 1005.45 1004.77 1003.20 1002.73 1002.08 999.75
1021.57 1021.59 1021.60 1021.48 1021.45 1021.23 1021.06 1020.89 1020.53 1020.06 1019.70 1019.42 1019.11 1018.74 1018.42 1018.15 1018.07 1017.37 1016.91 1016.57 1016.51 1016.57 1015.98 1013.71 1010.57 1007.24 1006.52 1005.67 1005.83 1005.80 1005.76 1005.69 1005.77 1005.59 1005.50 1005.57 1005.50 1005.57 1005.46 1004.79 1004.84 1004.40 1004.12 1004.02 1003.96 1004.16 1003.68 1004.26 1004.10 1003.70 1002.79 1002.43 1001.38 999.17
1021.31 1021.28 1021.28 1021.30 1021.21 1021.01 1020.66 1020.50 1020.32 1019.81 1019.31 1019.03 1018.62 1018.22 1017.92 1017.66 1017.30 1016.97 1015.40 1015.16 1015.94 1016.30 1015.58 1013.88 1010.78 1008.24 1007.57 1008.10 1007.25 1006.53 1006.20 1005.78 1005.28 1005.05 1004.92 1004.87 1005.01 1005.08 1004.64 1004.24 1004.07 1003.71 1003.41 1003.24 1003.62 1003.68 1003.34 1003.29 1003.38 1003.97 1003.00 1003.14 1001.65 999.89
1021.10 1021.07 1021.01 1020.94 1020.91 1020.86 1020.46 1020.15 1019.93 1019.43 1018.86 1018.43 1017.89 1017.38 1017.24 1016.99 1016.13 1015.50 1015.26 1015.31 1015.53 1015.91 1015.12 1013.90 1011.76 1009.46 1007.59 1007.58 1007.56 1007.26 1006.79 1005.95 1004.86 1004.55 1004.40 1004.72 1004.48 1003.86 1003.17 1003.37 1003.24 1002.58 1002.56 1002.39 1002.35 1002.50 1002.57 1003.13 1003.32 1003.16 1003.02 1004.04 1003.31 1002.83
1020.76 1020.76 1020.72 1020.76 1020.59 1020.53 1020.22 1019.97 1019.63 1019.01 1018.24 1017.60 1017.49 1016.57 1015.86 1015.12 1014.98 1015.37 1015.45 1015.34 1015.48 1015.46 1015.15 1013.90 1012.09 1010.27 1009.20 1008.18 1007.72 1007.85 1007.41 1006.94 1005.94 1004.46 1003.84 1003.89 1003.07 1002.77 1002.59 1002.43 1002.04 1001.73 1001.61 1001.81 1001.43 1001.38 1001.87 1002.54 1002.87 1002.83 1002.76 1003.39 1004.38 1004.56
1020.57 1020.54 1020.52 1020.50 1020.42 1020.20 1019.96 1019.78 1019.39 1018.75 1017.38 1017.23 1017.15 1016.57 1015.60 1014.69 1014.82 1014.86 1014.76 1014.81 1014.66 1014.51 1014.09 1012.86 1011.47 1010.20 1008.74 1008.37 1008.16 1007.89 1007.49 1007.23 1006.51 1005.15 1004.60 1003.37 1002.15 1001.83 1001.83 1001.18 1000.94 1000.81 1000.86 1001.00 1000.52 1000.61 1001.34 1001.77 1002.89 1002.47 1002.38 1002.83 1003.42 1000.68
1020.25 1020.32 1020.27 1020.30 1020.16 1019.91 1019.78 1019.61 1019.28 1018.57 1018.18 1018.47 1018.56 1017.35 1015.92 1014.60 1014.30 1014.24 1013.60 1013.25 1013.33 1012.46 1012.35 1012.04 1011.11 1010.23 1009.14 1008.60 1008.44 1007.79 1007.56 1007.39 1006.43 1005.61 1005.16 1003.67 1002.43 1002.24 1001.63 1001.00 1000.60 1000.25 999.82 1000.05 999.81 999.91 1000.56 1001.30 1002.18 1003.38 1002.25 1002.15 1000.49 1000.30
1019.99 1020.03 1020.11 1020.01 1019.81 1019.61 1019.50 1019.35 1019.18 1018.92 1018.41 1017.30 1017.71 1016.70 1015.26 1014.15 1013.61 1013.16 1012.11 1011.93 1011.72 1011.46 1011.45 1011.38 1010.92 1010.15 1009.17 1008.81 1008.43 1007.94 1007.47 1006.94 1006.39 1005.65 1004.26 1003.61 1003.13 1002.19 1001.88 1000.98 1000.23 999.54 999.01 998.93 999.18 999.09 999.50 999.91 1000.63 1001.62 1003.25 1000.30 1000.46 1001.04
1019.66 1019.83 1019.82 1019.62 1019.41 1019.25 1019.12 1018.98 1018.81 1018.50 1018.10 1017.44 1016.28 1015.56 1014.28 1012.91 1011.91 1011.44 1011.54 1011.44 1011.00 1010.76 1010.80 1010.90 1010.72 1010.38 1009.47 1008.91 1008.46 1008.10 1007.23 1006.98 1006.24 1005.31 1004.37 1003.56 1002.80 1002.14 1001.33 1000.06 999.82 998.95 998.30 998.45 998.82 998.86 999.11 999.74 1000.30 1001.59 1000.75 1000.25 1002.25 1003.74
1019.51 1019.52 1019.43 1019.11 1018.89 1018.78 1018.71 1018.65 1018.52 1018.18 1017.71 1016.55 1015.23 1014.02 1012.47 1011.48 1010.74 1010.67 1010.66 1010.47 1010.19 1010.08 1010.10 1010.13 1010.16 1010.26 1009.49 1008.98 1008.37 1007.88 1007.10 1006.10 1006.44 1005.52 1004.43 1003.72 1002.94 1002.13 1001.45 1000.54 999.83 998.84 998.35 998.46 998.41 998.33 997.99 998.27 999.38 1000.05 1000.82 1001.88 1003.30 1003.39
1019.32 1019.12 1018.68 1018.42 1018.54 1018.58 1018.56 1018.40 1018.14 1017.62 1016.85 1015.53 1014.24 1012.61 1011.32 1010.80 1010.47 1010.12 1010.01 1009.64 1009.41 1009.42 1009.22 1009.59 1009.78 1009.70 1008.90 1008.46 1007.70 1007.19 1006.51 1005.89 1005.62 1005.12 1004.33 1003.50 1002.69 1001.84 1001.20 999.80 999.84 998.97 998.27 998.23 998.26 997.75 997.60 997.79 998.41 999.33 1000.23 1000.90 1001.88 1002.85
1019.21 1018.36 1018.25 1018.42 1018.38 1018.28 1018.32 1018.16 1017.26 1016.80 1015.45 1013.81 1012.38 1011.23 1010.86 1010.38 1010.20 1009.97 1009.66 1009.22 1009.17 1009.08 1009.06 1009.39 1009.62 1009.31 1008.61 1007.99 1007.18 1006.87 1006.89 1006.43 1005.82 1004.90 1003.92 1003.25 1002.44 1001.83 1000.64 999.76 999.01 998.07 998.36 998.45 998.30 998.31 998.26 998.95 1000.01 1000.70 1001.59 1001.93 1001.90 1002.04
1018.67 1018.28 1018.36 1018.34 1018.22 1017.75 1017.40 1017.47 1016.43 1015.22 1013.76 1012.41 1011.55 1010.48 1010.07 1009.68 1009.57 1009.28 1009.01 1008.82 1008.95 1008.66 1008.71 1008.80 1009.05 1009.32 1009.71 1009.67 1008.88 1008.09 1007.46 1006.83 1006.12 1005.10 1004.12 1003.55 1002.69 1001.67 1001.00 999.86 999.17 998.58 998.85 998.79 998.84 999.26 999.11 999.77 1000.25 1000.70 1001.12 1001.84 1002.35 1002.55
1018.55 1018.48 1018.40 1018.32 1018.37 1018.22 1017.17 1016.24 1015.47 1014.16 1012.29 1011.18 1010.34 1009.76 1009.40 1009.13 1008.89 1008.59 1008.43 1008.28 1008.32 1008.23 1008.38 1008.25 1008.52 1009.19 1009.72 1009.77 1009.06 1008.21 1007.74 1007.04 1006.17 1005.49 1004.33 1003.20 1002.52 1001.68 1000.94 1000.14 999.58 999.39 1000.19 999.21 999.43 1000.16 1000.05 1000.30 1000.63 1001.04 1001.68 1002.21 1002.21 1002.42
1018.28 1018.21 1018.19 1018.26 1018.39 1017.58 1016.56 1015.18 1014.33 1013.37 1011.68 1010.41 1009.93 1009.32 1008.75 1008.59 1008.31 1008.04 1007.75 1007.66 1007.61 1007.70 1007.88 1007.61 1007.47 1007.97 1008.49 1008.10 1007.79 1007.45 1007.19 1006.11 1005.72 1005.32 1004.46 1003.41 1001.93 1001.76 1001.16 1000.42 1000.08 1000.03 999.78 999.43 999.98 1000.00 1000.16 1000.63 1000.69 1000.73 1002.26 1002.23 1002.14 1002.21
1017.59 1017.11 1017.46 1018.01 1017.37 1017.20 1016.00 1014.54 1013.42 1012.24 1011.12 1010.40 1009.68 1009.15 1008.64 1008.12 1007.78 1007.31 1006.99 1006.87 1006.90 1006.87 1006.71 1006.54 1006.56 1006.63 1006.16 1006.02 1006.26 1006.21 1006.29 1006.05 1005.39 1005.03 1003.71 1003.26 1002.74 1002.75 1001.58 1000.60 1000.11 1000.34 1000.57 1000.77 1001.14 1001.62 1001.44 1002.51 1002.77 1002.13 1002.53 1002.48 1001.90 1003.05
1016.98 1016.91 1016.94 1017.40 1016.69 1015.86 1015.06 1013.66 1012.72 1011.67 1011.27 1010.20 1009.59 1008.87 1008.25 1007.70 1007.06 1006.59 1006.37 1006.05 1005.63 1005.41 1005.33 1005.38 1005.20 1005.10 1004.91 1004.96 1004.90 1004.63 1004.23 1003.77 1003.66 1003.46 1003.07 1002.97 1002.85 1002.10 1001.62 1001.45 1001.33 1001.24 1001.32 1001.63 1001.52 1001.57 1002.10 1002.50 1002.77 1003.32 1002.39 1002.67 1003.27 1003.57
1017.03 1016.91 1016.46 1016.18 1015.71 1014.65 1013.73 1012.44 1012.25 1011.30 1010.55 1009.56 1008.88 1008.31 1007.64 1007.19 1006.48 1006.25 1006.08 1005.13 1004.54 1004.21 1004.25 1004.31 1004.18 1004.14 1004.03 1003.78 1003.72 1003.64 1003.45 1003.29 1003.24 1003.16 1003.31 1002.51 1002.52 1002.50 1002.32 1001.82 1001.82 1001.95 1002.10 1002.06 1002.28 1002.52 1002.52 1002.60 1002.46 1002.83 1003.03 1003.51 1003.82 1004.18
1016.96 1016.47 1015.47 1014.87 1014.63 1013.74 1012.29 1011.57 1011.28 1010.65 1010.05 1009.54 1009.16 1008.38 1007.54 1007.15 1006.71 1006.62 1006.02 1005.11 1004.83 1004.31 1004.06 1003.73 1003.44 1003.55 1003.32 1003.28 1003.26 1003.16 1002.96 1002.83 1002.68 1002.39 1002.29 1002.47 1002.72 1002.69 1002.58 1002.48 1002.50 1002.46 1002.55 1002.18 1002.75 1003.13 1003.34 1003.80 1003.71 1003.73 1004.04 1004.35 1004.94 1005.35
1016.74 1015.95 1015.27 1014.57 1013.85 1013.07 1011.73 1010.71 1010.39 1010.19 1009.66 1009.24 1008.85 1008.34 1007.78 1007.62 1007.33 1006.86 1006.20 1005.92 1005.58 1005.04 1004.66 1004.33 1003.97 1003.82 1003.62 1003.22 1002.75 1002.48 1002.18 1002.22 1002.28 1002.22 1001.81 1001.88 1002.14 1002.48 1002.58 1002.93 1003.08 1003.12 1003.20 1003.22 1003.92 1004.55 1004.78 1004.97 1005.24 1005.48 1005.96 1006.16 1006.50 1006.94
1015.77 1014.55 1013.89 1012.69 1012.08 1011.63 1010.64 1009.97 1009.66 1009.48 1009.20 1009.07 1008.46 1008.42 1008.23 1008.03 1007.47 1006.80 1006.73 1006.79 1006.35 1006.13 1005.90 1005.44 1004.89 1004.23 1003.75 1003.21 1002.66 1002.23 1001.72 1001.49 1001.62 1001.97 1002.22 1002.16 1002.14 1002.48 1003.01 1003.45 1003.76 1004.31 1004.14 1004.01 1004.08 1004.50 1005.12 1005.78 1006.40 1006.76 1007.10 1007.54 1007.76 1007.90
1014.58 1012.97 1012.00 1011.55 1011.04 1010.78 1010.26 1010.04 1009.71 1009.42 1009.21 1009.01 1009.04 1009.00 1008.91 1008.24 1007.19 1006.96 1007.05 1007.00 1006.75 1006.57 1006.15 1005.56 1004.95 1004.16 1003.65 1003.02 1002.50 1001.99 1001.66 1001.50 1002.01 1002.56 1002.57 1002.52 1002.59 1002.90 1003.23 1003.68 1004.25 1004.26 1004.12 1004.46 1004.92 1005.40 1005.62 1006.12 1006.78 1007.22 1007.61 1008.08 1008.33 1008.56
1012.87 1011.49 1010.89 1010.68 1010.32 1010.17 1009.88 1009.71 1009.50 1009.03 1008.92 1009.45 1009.70 1009.56 1009.23 1008.30 1007.27 1006.98 1006.84 1006.61 1006.57 1006.24 1005.64 1005.10 1004.58 1004.10 1003.45 1003.18 1002.78 1002.54 1002.17 1002.27 1002.36 1002.62 1003.04 1003.29 1003.57 1003.78 1004.23 1004.62 1004.63 1004.40 1004.66 1005.04 1005.66 1006.09 1006.45 1006.84 1007.26 1007.53 1007.80 1008.02 1008.30 1008.58
1011.48 1010.67 1010.27 1009.73 1009.60 1009.61 1009.19 1009.00 1008.85 1008.58 1009.01 1009.36 1009.58 1009.51 1008.99 1008.23 1007.52 1006.90 1006.24 1006.20 1005.88 1005.31 1004.85 1004.51 1003.93 1003.63 1003.34 1003.16 1002.73 1002.73 1002.57 1002.48 1002.76 1003.32 1003.67 1003.98 1004.12 1004.56 1004.61 1004.87 1005.17 1005.45 1005.86 1006.39 1006.72 1006.94 1007.10 1007.24 1007.38 1007.59 1007.89 1008.19 1008.50 1008.71
1009.97 1009.56 1009.53 1009.25 1009.14 1008.90 1008.54 1008.61 1008.87 1009.01 1009.17 1009.37 1009.39 1009.09 1008.52 1007.62 1006.69 1006.10 1005.67 1005.12 1004.83 1004.63 1004.36 1004.00 1003.49 1003.24 1003.01 1002.92 1002.71 1002.83 1002.79 1002.48 1003.03 1003.34 1003.70 1004.11 1004.50 1004.93 1005.11 1005.43 1005.74 1006.10 1006.47 1006.88 1007.39 1007.61 1007.56 1007.51 1007.69 1007.66 1007.81 1008.13 1008.33 1008.48
1008.75 1008.45 1008.49 1008.60 1008.59 1008.47 1008.51 1008.68 1008.62 1008.63 1008.76 1008.91 1008.88 1008.76 1008.08 1007.49 1006.16 1004.96 1004.36 1004.07 1004.09 1003.86 1003.59 1003.22 1002.98 1002.94 1003.04 1002.70 1002.52 1002.74 1003.37 1003.27 1003.10 1003.41 1003.84 1004.37 1004.85 1005.30 1005.65 1005.82 1005.96 1006.15 1006.41 1006.68 1007.18 1007.44 1007.61 1007.66 1007.77 1007.91 1008.04 1008.26 1008.34 1008.56
1007.99 1008.02 1008.29 1008.40 1008.44 1008.40 1008.69 1008.61 1008.58 1008.41 1008.17 1008.33 1007.91 1007.48 1007.23 1006.94 1006.04 1003.92 1002.26 1002.59 1002.97 1003.21 1003.70 1003.30 1003.05 1003.07 1002.78 1002.83 1003.24 1003.19 1003.27 1003.64 1004.00 1004.24 1004.60 1005.07 1005.38 1005.50 1005.69 1005.61 1005.56 1005.62 1005.76 1006.06 1006.42 1006.73 1007.12 1007.38 1007.57 1007.76 1007.94 1008.19 1008.05 1008.69
1007.77 1007.89 1008.11 1008.38 1008.61 1008.73 1009.04 1009.04 1008.66 1007.97 1007.37 1006.54 1005.83 1005.38 1005.05 1004.78 1002.78 1001.87 1001.69 1001.64 1001.99 1002.95 1003.14 1003.09 1003.32 1003.20 1003.23 1003.29 1003.76 1004.05 1004.35 1004.72 1004.87 1005.05 1005.22 1005.25 1005.34 1005.44 1005.59 1005.53 1005.51 1005.42 1005.71 1006.14 1006.41 1006.75 1007.02 1006.95 1007.03 1007.33 1007.65 1008.01 1008.49 1008.85
Wind_Speed
8 6 7 7 9 10 11 12 13 14 14 14 14 15 15 15 14 6 7 5 2 4 12 12 12 13 14 9 7 11 8 6 5 5 4 3 4 6 8 9 7 6 5 7 7 9 9 7 5 9 8 5 7 9
6 6 5 7 8 9 10 12 13 13 13 14 14 14 14 13 12 10 5 6 3 4 10 21 22 22 22 22 12 5 10 11 3 3 4 4 4 4 6 4 8 3 2 3 5 3 11 14 7 1 14 9 6 13
5 4 5 7 8 10 11 12 12 13 14 14 15 14 14 12 12 8 6 7 5 5 10 8 11 14 16 15 15 9 6 8 5 3 2 2 3 3 3 4 4 4 2 3 8 3 18 18 17 14 6 8 2 19
4 4 6 6 8 9 10 12 12 13 13 15 15 13 12 12 12 10 6 6 2 4 5 7 12 22 23 18 17 13 17 12 11 6 4 3 2 3 3 5 2 1 2 0 5 7 11 1 16 18 18 16 4 1
5 5 5 6 7 9 10 11 12 13 14 15 14 14 13 13 13 9 7 6 2 2 4 10 22 16 14 10 15 15 12 11 7 6 5 7 6 5 6 6 6 6 6 5 6 5 6 12 16 21 15 13 16 14
5 5 5 7 8 9 10 12 13 13 14 15 15 15 13 12 12 6 2 3 3 2 3 6 7 12 14 10 8 16 7 8 7 6 5 6 7 2 3 4 4 2 7 7 6 3 8 7 13 13 11 14 16 20
5 5 6 6 8 9 11 12 13 14 14 15 15 14 13 12 6 5 3 1 1 1 3 6 6 3 5 4 4 3 5 5 5 6 7 7 5 4 6 14 8 15 11 7 11 2 6 10 5 12 11 19 21 8
5 5 5 6 8 9 11 12 14 15 15 16 16 16 15 13 13 6 3 9 8 3 3 4 6 5 4 1 4 3 3 4 4 6 4 5 2 4 6 7 13 14 14 13 10 13 13 4 5 4 7 12 14 13
6 6 6 6 8 10 11 13 15 16 16 17 18 20 5 4 3 2 2 7 3 1 3 3 4 5 3 2 1 3 3 3 3 4 8 5 7 8 8 11 10 10 8 9 11 13 13 9 8 6 8 7 11 12
7 6 6 7 8 10 11 14 16 17 20 19 6 3 2 2 8 7 1 2 2 1 2 4 4 8 7 9 1 2 1 2 3 4 3 8 13 15 13 11 9 10 12 12 7 7 7 4 5 7 13 12 16 28
7 6 6 8 9 10 11 13 15 16 13 1 2 2 5 4 3 2 2 3 2 4 5 5 7 8 4 3 3 3 2 2 3 3 2 4 3 7 9 20 15 13 14 14 9 7 6 7 7 11 5 21 26 16
6 6 7 8 9 10 11 12 12 7 3 6 5 7 5 3 3 4 3 3 4 2 2 3 5 5 5 1 3 3 3 1 6 3 2 4 4 14 11 9 11 15 17 15 11 8 6 8 10 15 19 11 12 17
7 7 8 9 10 10 11 11 10 10 11 3 3 4 3 3 2 4 3 2 2 1 1 2 5 3 3 3 3 3 3 5 3 3 4 2 7 11 12 10 12 13 12 14 8 8 9 2 5 5 7 7 20 13
7 8 9 10 11 12 11 11 10 7 4 3 4 4 4 4 5 1 2 2 5 2 4 2 3 3 3 3 2 4 3 1 4 6 4 2 7 11 12 13 13 16 9 9 10 10 11 15 13 18 13 19 12 9
7 9 10 13 14 12 7 6 7 4 3 4 4 4 6 7 3 3 3 2 3 4 4 3 3 2 3 4 3 4 4 2 4 4 4 7 10 10 11 10 11 8 6 9 8 8 5 7 9 6 15 18 12 6
7 12 7 6 2 5 7 8 4 3 3 4 6 7 7 4 5 4 2 5 2 4 3 2 2 3 3 3 4 2 5 1 4 3 5 7 11 11 12 8 8 6 4 6 5 1 1 3 10 9 11 12 15 13
3 3 4 1 6 9 8 4 2 5 5 5 5 6 8 3 3 5 6 4 3 4 2 1 2 4 5 4 2 2 6 7 8 7 7 8 8 11 11 7 5 5 1 3 2 4 1 11 16 14 14 13 13 12
3 3 3 6 8 3 3 5 4 5 7 7 8 8 5 3 5 5 5 4 2 3 2 2 3 3 4 7 7 8 11 11 7 8 10 12 14 15 12 10 5 6 2 1 3 5 4 13 10 8 13 12 9 6
3 3 5 6 6 3 3 4 4 5 6 7 7 7 6 3 4 4 5 5 4 4 2 2 2 3 3 5 6 10 7 5 8 8 10 12 11 12 12 7 8 7 10 1 2 1 4 6 1 6 4 10 11 10
9 10 10 7 4 3 4 4 3 5 5 5 8 8 5 2 6 7 7 6 4 3 4 3 3 4 5 8 8 7 5 9 8 6 9 8 5 10 10 9 4 6 5 2 9 8 8 9 9 8 7 6 9 4
7 8 9 5 4 6 4 4 4 5 5 5 7 7 4 5 7 6 8 6 5 5 8 6 7 8 14 12 7 8 8 7 8 7 5 6 5 3 6 5 5 5 5 7 10 9 15 8 8 11 6 7 8 8
1 1 2 6 4 4 5 6 5 6 5 7 9 8 7 6 7 7 6 9 9 8 8 8 8 9 6 5 7 10 7 5 5 6 7 2 3 7 5 6 7 6 5 4 5 4 6 4 9 6 9 10 9 6
5 3 3 5 4 3 7 6 5 4 4 4 3 4 4 2 3 3 3 4 5 5 7 8 8 7 6 7 5 4 4 6 5 4 3 2 3 3 5 5 5 5 4 4 5 5 5 7 10 9 10 11 10 11
3 3 4 4 7 5 5 4 4 3 3 3 3 5 5 2 4 2 5 4 3 4 4 6 7 5 4 4 4 4 5 4 5 6 3 2 1 3 2 6 5 5 6 4 5 4 7 8 7 8 10 13 13 13
2 5 3 4 3 4 5 8 11 9 7 4 9 9 2 3 2 2 3 3 5 6 6 7 7 5 2 3 4 5 7 5 5 5 5 4 2 2 5 5 5 7 4 11 10 9 6 9 9 10 11 12 15 15
4 5 5 6 4 6 4 3 3 5 6 5 3 2 3 3 4 3 1 3 4 6 7 6 7 5 5 3 7 5 2 5 2 3 4 4 5 6 6 5 6 5 4 6 6 6 11 11 11 13 12 12 11 13
4 7 7 6 4 4 3 3 4 4 4 3 2 5 3 4 4 2 2 1 5 8 8 8 9 7 4 5 4 5 5 4 8 6 4 8 7 6 6 5 7 4 7 8 8 9 11 12 11 10 9 7 7 7
7 5 9 7 7 6 10 7 4 4 1 2 1 1 3 3 2 2 4 8 9 9 8 8 7 8 6 5 6 5 5 8 10 9 8 8 8 8 8 7 8 16 10 10 9 8 8 9 9 9 8 8 6 6
7 6 7 9 5 3 5 8 7 0 2 2 2 2 4 4 3 8 11 9 8 9 6 7 7 5 6 5 4 3 3 4 11 14 12 5 7 5 5 7 8 8 7 7 10 8 8 7 8 8 8 6 4 4
12 9 5 5 4 4 4 1 2 0 1 2 2 3 5 8 11 8 9 8 7 7 6 7 7 5 5 4 4 3 3 2 3 9 8 7 6 7 6 6 5 6 7 7 6 3 5 3 4 4 6 4 3 1
10 7 7 6 7 5 0 1 2 4 4 4 4 6 9 5 9 10 9 7 6 6 6 5 5 5 2 4 9 10 6 5 11 11 9 8 8 7 7 6 6 6 6 8 8 7 6 5 4 2 1 2 3 5
6 6 5 6 5 1 3 2 2 3 2 2 4 5 2 3 5 4 4 6 5 2 7 5 4 7 6 5 3 6 7 8 8 8 10 6 4 4 5 4 5 6 7 8 8 7 8 6 5 9 7 8 8 9
6 7 5 1 1 1 2 2 2 4 4 4 5 8 9 7 5 2 1 1 7 10 7 6 0 4 6 7 9 7 8 7 9 11 11 9 6 5 7 7 4 4 7 10 11 7 8 11 7 5 11 8 7 11
Wind_Direction
285 286 302 315 322 325 329 331 331 332 336 339 337 339 341 341 346 340 300 311 352 273 292 273 314 321 319 310 302 340 330 4 343 357 320 300 271 256 267 263 252 249 266 239 229 246 262 163 140 156 189 180 79 359
273 283 302 309 314 322 325 328 328 331 336 337 334 333 335 336 335 339 282 330 325 251 284 299 289 276 257 256 272 273 298 308 285 353 13 340 338 308 332 290 9 85 13 268 28 324 329 333 217 161 152 168 144 136
259 281 293 305 316 321 323 324 326 329 331 330 328 327 330 331 329 331 297 302 317 279 281 259 277 287 313 227 234 245 259 268 287 141 280 254 262 302 307 324 354 120 332 46 348 308 331 337 1 14 345 146 147 143
252 272 291 305 315 318 320 323 324 327 326 326 326 324 323 324 323 322 289 298 299 278 282 290 329 311 297 293 279 249 238 262 274 274 226 232 238 226 252 231 199 96 91 167 249 264 313 174 353 348 336 327 57 321
242 264 288 303 311 318 319 325 325 326 327 326 326 326 322 319 315 301 266 263 331 212 294 302 300 276 309 233 236 251 264 243 247 254 256 242 231 265 272 275 256 168 175 191 243 188 176 272 315 323 326 329 312 232
240 261 289 304 310 315 320 323 324 324 324 322 321 320 320 320 324 293 303 11 351 38 314 304 308 288 290 260 256 227 244 229 231 230 244 240 241 211 253 253 267 181 179 198 237 186 223 237 251 285 335 329 311 181
240 272 293 303 308 316 320 321 321 323 321 316 313 311 310 308 309 273 301 245 167 258 261 281 273 253 312 4 7 352 303 271 259 262 241 252 234 178 237 249 257 275 272 196 245 302 315 234 231 305 345 327 314 208
242 268 285 295 307 315 320 320 318 319 316 309 306 302 297 297 279 267 242 257 168 255 250 276 282 287 66 18 301 313 285 283 247 243 249 235 221 193 251 240 245 253 257 260 204 217 242 255 320 273 336 329 288 343
248 270 275 291 307 313 320 320 316 316 311 304 300 292 285 203 239 238 118 110 197 301 288 277 292 306 284 192 246 297 321 291 273 231 235 230 224 227 218 219 241 247 253 257 251 228 222 212 241 268 309 287 266 270
240 256 278 295 306 310 319 318 318 318 309 300 279 235 249 237 116 125 173 195 175 223 270 259 294 277 304 296 334 291 276 279 295 262 245 237 248 254 240 228 220 235 251 272 246 218 219 233 74 154 239 250 214 231
245 265 283 298 303 310 315 316 321 328 306 314 269 313 316 130 235 214 246 216 142 230 203 241 259 294 303 307 307 230 283 239 275 276 275 260 236 236 277 242 241 241 243 252 254 223 170 133 148 121 280 261 246 142
246 265 288 292 299 308 311 315 324 310 17 306 290 273 252 261 227 265 249 185 218 284 198 258 303 275 283 307 267 227 253 78 260 346 276 257 340 338 335 328 287 283 223 235 240 206 224 136 164 174 204 286 183 138
245 269 281 289 297 299 300 306 308 295 296 270 207 241 239 236 323 225 246 213 257 290 248 291 315 286 274 259 262 294 263 237 318 238 234 244 296 321 321 302 311 308 236 209 214 242 240 329 130 181 205 53 30 112
248 270 281 288 289 288 290 298 301 304 268 245 238 271 228 230 240 22 333 311 286 249 270 269 271 270 312 278 242 270 271 7 305 321 296 266 305 304 309 315 308 307 178 174 204 239 246 175 175 178 102 62 26 15
256 273 286 282 270 276 274 277 304 262 261 256 249 239 236 247 289 216 215 276 288 254 260 244 235 237 277 269 221 275 246 172 217 260 272 319 302 300 309 316 312 298 168 193 218 235 261 111 157 111 117 139 130 42
269 283 233 244 268 291 286 274 252 230 257 245 238 260 281 280 305 319 320 288 258 246 290 63 286 298 271 238 232 250 278 30 359 299 275 292 300 309 308 355 307 340 240 190 202 225 101 59 133 134 142 154 168 169
261 262 130 297 294 285 259 249 233 220 251 235 236 236 266 303 326 302 313 310 318 284 311 238 303 263 279 270 302 250 8 329 345 322 303 310 315 314 307 327 76 321 277 138 62 353 181 104 135 132 151 164 168 180
252 94 53 350 335 287 204 214 248 252 246 243 254 261 272 235 254 265 288 289 337 250 253 256 226 13 1 318 330 323 320 320 343 300 320 317 313 308 305 312 43 232 221 303 66 351 262 125 146 162 145 162 170 174
91 312 308 326 333 305 260 229 236 261 255 267 265 264 257 244 253 285 275 245 257 243 232 250 198 183 201 235 261 293 306 309 304 333 310 317 308 308 281 298 342 69 168 170 272 229 54 50 155 129 148 174 188 192
262 270 266 267 277 267 262 246 218 266 274 298 298 288 279 257 268 266 250 246 234 196 213 230 242 174 183 231 229 257 242 268 289 324 288 272 345 29 338 326 339 47 6 12 85 66 55 19 337 7 27 47 28 22
237 229 199 195 213 219 269 267 242 256 290 279 289 300 271 282 282 263 249 244 249 243 243 232 247 240 240 238 222 226 244 226 243 233 289 342 344 176 255 300 349 47 49 41 83 99 82 75 323 291 237 141 87 56
278 127 188 189 255 221 247 232 254 326 282 265 274 264 263 269 277 266 266 244 235 234 228 241 256 248 247 218 238 235 241 310 317 317 344 334 358 4 0 27 1 12 47 39 64 66 101 150 125 155 86 77 80 92
267 209 227 217 243 241 250 236 227 245 251 289 280 283 273 257 262 9 278 250 249 226 232 235 241 249 227 247 261 291 298 295 298 292 201 294 22 15 336 7 22 346 70 53 52 36 21 18 68 82 81 80 84 76
280 250 237 224 200 252 278 216 218 254 255 251 277 288 284 338 333 256 258 267 341 352 8 310 232 225 261 251 248 246 232 236 265 279 216 154 93 96 74 22 56 51 12 65 80 74 61 48 66 83 79 83 76 79
195 263 160 271 251 257 257 242 232 246 260 257 280 278 303 335 295 268 274 11 17 2 5 2 356 348 331 287 286 240 234 223 240 265 291 109 108 133 74 37 67 55 71 90 76 56 65 74 78 86 86 92 96 91
222 233 196 214 217 220 239 292 338 308 267 276 274 17 334 312 262 246 38 330 336 3 351 347 327 323 324 296 313 351 207 223 244 76 60 97 103 88 91 66 70 55 74 98 104 115 101 96 97 98 91 84 89 109
236 240 212 228 246 282 272 317 307 259 251 246 13 351 336 271 255 123 149 231 341 331 312 301 295 293 291 302 311 322 346 74 88 95 79 64 55 72 79 91 92 176 147 104 96 105 112 111 108 98 95 87 91 100
242 247 239 241 238 234 248 249 254 261 224 101 114 267 272 268 309 28 322 316 308 298 284 281 284 302 300 284 306 354 333 95 114 98 78 68 71 72 72 68 67 61 81 91 91 88 89 102 110 114 111 101 97 96
229 235 237 249 242 209 243 253 245 199 117 182 207 237 244 237 275 296 295 291 286 272 275 293 280 274 275 259 276 256 290 131 112 107 97 96 88 57 81 93 96 97 94 90 79 104 120 121 108 98 92 98 123 144
235 217 217 227 231 246 232 2 6 135 149 199 230 275 273 284 283 285 285 277 265 259 262 265 266 247 229 196 220 239 234 17 122 128 128 124 121 103 96 84 81 104 114 115 116 117 14 102 102 136 125 117 145 194
227 226 229 237 242 239 193 86 244 245 246 263 283 278 275 283 301 283 259 252 253 262 261 264 251 135 136 248 105 93 86 68 97 104 103 100 114 129 138 145 149 148 151 148 154 174 173 177 157 205 154 119 221 246
244 220 226 242 258 106 37 332 308 263 289 222 229 223 219 228 252 260 227 188 206 113 41 359 88 106 101 76 76 80 95 98 111 108 105 119 130 156 179 206 187 173 182 180 179 188 181 164 149 187 181 203 172 175
213 207 212 204 206 207 53 354 271 266 228 239 216 211 207 215 252 83 218 69 107 118 145 238 303 112 149 117 99 93 76 78 79 84 85 89 109 171 198 227 247 122 87 68 42 357 136 143 161 164 146 149 114 112